[[{"header":{"parameterUnit":"m.s-1","parameterCategory":2,"la1":30.2991,"la2":30.254,"lo1":-89.0895,"lo2":-89.0444,"dy":0.0017,"dx":0.0017,"nx":28,"ny":28,"refTime":"2024-05-27T03:00:00:Z","depth":"0","parameterNumber":2,"parameterNumberName":"U-component_of_CURRENTS"},"data":[0,0,0,0,0,0,0,0,0,0,0,0,0,0,0,0,0,0,0,0,0,0,0,0,0,0,0,0,0,0,0,0,0,0,0,0,0,0,0,0,0,0,0,0,0,0,0,0,0,0,0,0,0,0,0,0,0,0,0.192,0.1921,0,0.2028,0.2029,0.203,0.2061,0.2061,0.2061,0.206,0.2136,0.2138,0.2141,0,0,0,0,0,0,0,0,0,0,0,0,0,0.178,0.1782,0.192,0.1922,0.1923,0.2027,0.2029,0.203,0.2061,0.2061,0.206,0.206,0.2135,0.2138,0.2141,0,0,0,0,0,0,0,0,0,0,0,0,0,0.1858,0.1783,0.192,0.1953,0.1957,0.2027,0.2029,0.203,0.2061,0.2061,0.206,0.206,0.2134,0.2138,0.2141,0.2175,0,0,0.2152,0.2154,0,0,0,0,0,0,0,0,0.1853,0.1863,0.1946,0.1951,0.1955,0.2032,0.2007,0.2078,0.2062,0.202,0.206,0.2059,0.21,0.2106,0.2125,0.2178,0.2182,0.2152,0.2155,0.2156,0.2157,0,0,0,0,0,0,0,0.1848,0.1858,0.1961,0.1948,0.1954,0.1975,0.1985,0.2021,0.206,0.2023,0.2026,0.2042,0.2102,0.2122,0.2127,0.2183,0.2152,0.2155,0.2158,0.2159,0.2258,0.2258,0,0,0,0,0,0,0.1838,0.1853,0.1957,0.1964,0.1904,0.1978,0.1989,0.2007,0.206,0.2069,0.2042,0.2043,0.2116,0.2123,0.213,0.218,0.2156,0.2159,0.2161,0.2257,0.2258,0.2258,0,0,0,0,0,0,0.1834,0.1846,0.1953,0.1912,0.1928,0.1981,0.2001,0.2009,0.2031,0.2075,0.2082,0.2055,0.2116,0.2125,0.2167,0.2183,0.2161,0.2164,0.2257,0.2257,0.2258,0.2276,0,0,0,0,0,0,0.183,0.1844,0.1853,0.1912,0.193,0.1999,0.2002,0.2012,0.2042,0.2044,0.2089,0.2096,0.2116,0.2161,0.217,0.2188,0.2167,0.2256,0.2257,0.2258,0.2275,0.2277,0.2279,0,0,0,0,0,0.1824,0.1842,0.1853,0.1865,0.194,0.2,0.2011,0.2046,0.2043,0.2061,0.2088,0.2094,0.2173,0.2165,0.2175,0.2194,0.2255,0.2257,0.2258,0.2274,0.2277,0.2279,0,0,0,0,0,0,0.178,0.1849,0.1862,0.1897,0.1945,0.2006,0.203,0.2047,0.2083,0.2084,0.211,0.212,0.2159,0.2173,0.2164,0.2222,0.2212,0.2215,0.222,0.2223,0.2226,0.2212,0.217,0,0,0,0,0,0.1776,0.1811,0.1872,0.19,0.1925,0.1975,0.2002,0.2028,0.2069,0.2084,0.2114,0.2143,0.2173,0.2194,0.2223,0.2264,0.229,0.2278,0.228,0.2282,0.2277,0.2316,0.2322,0.2262,0.2262,0.2262,0,0,0.1766,0.1809,0.1828,0.1894,0.1934,0.1983,0.199,0.2038,0.2072,0.2087,0.2137,0.2155,0.2184,0.2227,0.2245,0.2242,0.2322,0.2284,0.2285,0.2279,0.2318,0.2324,0.2329,0.2262,0.2262,0.2262,0,0,0.1779,0.1804,0.1845,0.1889,0.1955,0.1988,0.2,0.2063,0.2083,0.2131,0.2146,0.2171,0.2225,0.2249,0.2266,0.2297,0.2329,0.2306,0.2316,0.2354,0.236,0.2364,0.2445,0.2457,0.2311,0.2311,0.2311,0,0.1758,0.1826,0.1863,0.1918,0.1955,0.1989,0.2038,0.207,0.2134,0.2149,0.2146,0.221,0.2233,0.228,0.2288,0.2303,0.2344,0.2305,0.2358,0.2363,0.2367,0.2448,0.2461,0.2312,0.2312,0.2312,0.2312,0,0.1816,0.1865,0.1893,0.1971,0.2009,0.2058,0.2107,0.2138,0.2154,0.2179,0.2218,0.2245,0.2282,0.2291,0.2301,0.2346,0.2374,0.2355,0.2351,0.2375,0.2459,0.2472,0.2314,0.2313,0.2313,0.2313,0,0,0.1781,0.1907,0.1918,0.1961,0.2042,0.2079,0.2129,0.2182,0.2205,0.224,0.227,0.2306,0.2308,0.2326,0.2342,0.2367,0.2447,0.2376,0.2377,0.2458,0.2573,0.2701,0.2728,0.2439,0.244,0.2441,0.2634,0,0.1814,0.1922,0.1971,0.2053,0.2111,0.2147,0.2188,0.223,0.2254,0.2289,0.2301,0.2335,0.2328,0.2345,0.2372,0.242,0.2475,0.2399,0.2536,0.2541,0.2652,0.2744,0.2744,0.2924,0.2647,0.2649,0.2651,0,0.1863,0.1928,0.202,0.2105,0.2128,0.2166,0.2222,0.2263,0.2307,0.2324,0.235,0.2365,0.2417,0.2393,0.2504,0.246,0.2523,0.2555,0.2563,0.2679,0.2691,0.2848,0.2958,0.281,0.2671,0.2669,0.2667,0,0.1848,0.1959,0.2028,0.2063,0.216,0.2183,0.2218,0.2266,0.2299,0.2344,0.237,0.2421,0.2464,0.2521,0.2611,0.2562,0.2741,0.2683,0.2867,0.2878,0.2903,0.2915,0.2884,0.2771,0.2771,0.277,0.277,0,0.1881,0.1935,0.2023,0.2065,0.2115,0.2175,0.2215,0.2255,0.2309,0.2348,0.2384,0.2444,0.2494,0.2601,0.2654,0.2841,0.2795,0.2904,0.2942,0.2917,0.2927,0.2818,0.2727,0.2778,0.2776,0.2775,0.2773,0,0.1871,0.1944,0.2015,0.2099,0.2119,0.2148,0.2215,0.2238,0.23,0.2356,0.2377,0.2488,0.2657,0.2752,0.2884,0.2935,0.3003,0.3139,0.3138,0.3174,0.3193,0.3106,0.3069,0.2984,0.3368,0.3373,0.3376,0,0.1885,0.1921,0.201,0.2031,0.2067,0.2115,0.214,0.222,0.225,0.2392,0.242,0.2614,0.278,0.3069,0.3205,0.3399,0.3197,0.3473,0.3368,0.3233,0.3162,0.2973,0.2886,0.342,0.3424,0.3427,0.3429,0,0.1877,0.1902,0.1952,0.2001,0.2034,0.2078,0.2125,0.2165,0.2262,0.2368,0.2549,0.2712,0.303,0.3257,0.3516,0.361,0.3312,0.3547,0.3378,0.32,0.3017,0.2941,0.327,0.3457,0.3454,0.3452,0.345,0.3449,0.1851,0.1871,0.1929,0.1975,0.2001,0.205,0.21,0.2171,0.2298,0.2468,0.2622,0.2876,0.3171,0.358,0.3638,0.3696,0.3578,0.3605,0.352,0.3346,0.3223,0.3659,0.39,0.39,0.39,0.39,0.39,0,0.1852,0.1881,0.1897,0.1971,0.1994,0.2031,0.2097,0.2156,0.2322,0.25,0.272,0.3075,0.334,0.351,0.3713,0.3641,0.3438,0.3517,0.3177,0.3097,0.3482,0.3441,0.3628,0.3628,0.3628,0.3628,0.3629,0.3629,0.1862,0.1901,0.1921,0.1975,0.2007,0.2063,0.212,0.2208,0.2324,0.2572,0.2774,0.297,0.3226,0.3475,0.3489,0.3427,0.3074,0.3048,0.29,0.3096,0.3092,0.3088,0.3023,0.3119,0.3119,0.2432,0.2426,0.2422]},{"header":{"parameterUnit":"m.s-1","parameterCategory":2,"la1":30.2991,"la2":30.254,"lo1":-89.0895,"lo2":-89.0444,"dy":0.0017,"dx":0.0017,"nx":28,"ny":28,"refTime":"2024-05-27T03:00:00:Z","depth":"0","parameterNumber":3,"parameterNumberName":"V-component_of_CURRENTS"},"data":[0,0,0,0,0,0,0,0,0,0,0,0,0,0,0,0,0,0,0,0,0,0,0,0,0,0,0,0,0,0,0,0,0,0,0,0,0,0,0,0,0,0,0,0,0,0,0,0,0,0,0,0,0,0,0,0,0,0,-0.0251,-0.0252,0,-0.0322,-0.0322,-0.0323,-0.0314,-0.0312,-0.0311,-0.031,-0.037,-0.0372,-0.0375,0,0,0,0,0,0,0,0,0,0,0,0,0,-0.0196,-0.0197,-0.0251,-0.0252,-0.0253,-0.0321,-0.0322,-0.0324,-0.0314,-0.0312,-0.0311,-0.0309,-0.0369,-0.0372,-0.0375,0,0,0,0,0,0,0,0,0,0,0,0,0,-0.0239,-0.0197,-0.0251,-0.0256,-0.0257,-0.0321,-0.0323,-0.0324,-0.0314,-0.0312,-0.031,-0.0309,-0.0368,-0.0372,-0.0376,-0.0439,0,0,-0.0388,-0.039,0,0,0,0,0,0,0,0,-0.0237,-0.0241,-0.0254,-0.0255,-0.0257,-0.0306,-0.0325,-0.0361,-0.0315,-0.0293,-0.031,-0.0308,-0.0348,-0.0354,-0.0373,-0.0441,-0.0444,-0.0389,-0.0391,-0.0393,-0.0394,0,0,0,0,0,0,0,-0.0234,-0.0239,-0.028,-0.0255,-0.0257,-0.0284,-0.0288,-0.0332,-0.0331,-0.0295,-0.0294,-0.0301,-0.0349,-0.0369,-0.0374,-0.0445,-0.0389,-0.0392,-0.0395,-0.0396,-0.0599,-0.0601,0,0,0,0,0,0,-0.0221,-0.0236,-0.0278,-0.0282,-0.0241,-0.0286,-0.029,-0.0293,-0.0331,-0.0334,-0.0303,-0.0301,-0.0363,-0.0369,-0.0376,-0.0474,-0.0393,-0.0397,-0.0399,-0.0596,-0.0599,-0.0602,0,0,0,0,0,0,-0.022,-0.0224,-0.0275,-0.026,-0.0268,-0.0288,-0.0292,-0.0295,-0.0314,-0.0337,-0.034,-0.0318,-0.0361,-0.037,-0.0434,-0.0475,-0.0399,-0.0402,-0.0592,-0.0597,-0.0601,-0.0656,0,0,0,0,0,0,-0.0218,-0.0223,-0.0229,-0.0259,-0.0268,-0.0327,-0.0294,-0.0298,-0.0321,-0.0319,-0.0351,-0.0355,-0.0361,-0.0428,-0.0438,-0.0479,-0.0406,-0.0589,-0.0594,-0.0599,-0.0651,-0.0662,-0.0671,0,0,0,0,0,-0.0215,-0.0237,-0.0229,-0.0235,-0.0273,-0.0329,-0.0337,-0.0346,-0.0324,-0.0352,-0.0372,-0.0354,-0.0469,-0.0434,-0.0445,-0.0488,-0.0586,-0.0593,-0.0599,-0.0646,-0.066,-0.0671,0,0,0,0,0,0,-0.0224,-0.0239,-0.0231,-0.0256,-0.0292,-0.0326,-0.0355,-0.0354,-0.0393,-0.0388,-0.0394,-0.0402,-0.0473,-0.0482,-0.0443,-0.0566,-0.0524,-0.0533,-0.0556,-0.0569,-0.0579,-0.0504,-0.0409,0,0,0,0,0,-0.0227,-0.0242,-0.0266,-0.0292,-0.0308,-0.0331,-0.0354,-0.0361,-0.0394,-0.0408,-0.0433,-0.0466,-0.0513,-0.0538,-0.0581,-0.0653,-0.061,-0.0689,-0.07,-0.0708,-0.0658,-0.0658,-0.0662,-0.0624,-0.0624,-0.0624,0,0,-0.0237,-0.0249,-0.0257,-0.0295,-0.032,-0.0362,-0.0341,-0.0385,-0.0417,-0.0412,-0.0474,-0.0506,-0.0541,-0.0618,-0.0651,-0.0628,-0.0704,-0.0716,-0.0723,-0.0666,-0.0665,-0.0668,-0.067,-0.0628,-0.0627,-0.0627,0,0,-0.0277,-0.0277,-0.0306,-0.0338,-0.0378,-0.0395,-0.0407,-0.0451,-0.0466,-0.0535,-0.0537,-0.0584,-0.0669,-0.0691,-0.0714,-0.0809,-0.076,-0.0843,-0.0833,-0.0837,-0.0838,-0.0838,-0.0804,-0.08,-0.0847,-0.0847,-0.0847,0,-0.0287,-0.0317,-0.033,-0.0372,-0.0391,-0.0409,-0.0446,-0.0483,-0.0543,-0.0544,-0.0562,-0.0648,-0.0695,-0.0742,-0.0782,-0.0827,-0.0801,-0.0781,-0.0844,-0.0844,-0.0843,-0.0807,-0.0803,-0.0851,-0.085,-0.085,-0.085,0,-0.0349,-0.0374,-0.0401,-0.0443,-0.0475,-0.0515,-0.0551,-0.0583,-0.06,-0.0615,-0.0665,-0.0726,-0.0751,-0.0809,-0.0827,-0.0858,-0.0833,-0.0856,-0.0797,-0.0849,-0.081,-0.0804,-0.0856,-0.0855,-0.0853,-0.0853,0,0,-0.0351,-0.0424,-0.0432,-0.0439,-0.0504,-0.0524,-0.0583,-0.0611,-0.0601,-0.0678,-0.0665,-0.0779,-0.0765,-0.0787,-0.0823,-0.0839,-0.085,-0.0843,-0.0841,-0.0778,-0.0821,-0.0775,-0.0763,-0.0883,-0.0882,-0.0881,-0.0799,0,-0.0386,-0.0452,-0.0485,-0.0532,-0.0553,-0.0577,-0.0612,-0.0637,-0.0657,-0.0659,-0.0698,-0.0715,-0.0773,-0.0774,-0.0806,-0.0821,-0.0833,-0.0866,-0.0802,-0.0798,-0.0728,-0.0755,-0.0689,-0.0607,-0.0793,-0.0792,-0.0791,0,-0.0418,-0.045,-0.05,-0.0519,-0.0528,-0.0557,-0.055,-0.0587,-0.0598,-0.0607,-0.0618,-0.0633,-0.0654,-0.0706,-0.0727,-0.0741,-0.0773,-0.0795,-0.0794,-0.0708,-0.0741,-0.0586,-0.0588,-0.0783,-0.0781,-0.0782,-0.0783,0,-0.0369,-0.0443,-0.0465,-0.0484,-0.0529,-0.0528,-0.0541,-0.0554,-0.0545,-0.0545,-0.051,-0.0551,-0.0532,-0.0588,-0.0629,-0.0677,-0.0627,-0.0708,-0.0692,-0.0688,-0.059,-0.0578,-0.0735,-0.072,-0.072,-0.0721,-0.0721,0,-0.0365,-0.0376,-0.0435,-0.0442,-0.0426,-0.0472,-0.0443,-0.0456,-0.045,-0.0389,-0.0455,-0.0386,-0.05,-0.0488,-0.0569,-0.0571,-0.0579,-0.0653,-0.066,-0.0613,-0.0605,-0.0734,-0.0843,-0.0717,-0.0718,-0.0719,-0.0719,0,-0.0295,-0.0354,-0.0358,-0.0397,-0.04,-0.0375,-0.0372,-0.0341,-0.0345,-0.0259,-0.0244,-0.0243,-0.0205,-0.0298,-0.0353,-0.0456,-0.0561,-0.0505,-0.0418,-0.0416,-0.0616,-0.0728,-0.0763,-0.0831,-0.0482,-0.0481,-0.0479,0,-0.026,-0.0266,-0.0295,-0.0281,-0.0291,-0.0274,-0.0251,-0.0277,-0.0233,-0.0136,-0.0068,-0.0016,0.0096,0.0039,-0.0135,-0.0236,-0.044,-0.0302,-0.0407,-0.0588,-0.0719,-0.0791,-0.0852,-0.0306,-0.0303,-0.0301,-0.0299,0,-0.017,-0.0188,-0.0189,-0.0166,-0.0144,-0.0115,-0.008,-0.0025,-0.0003,0.0122,0.0318,0.0427,0.0368,0.0324,0.0123,0.0009,-0.0412,-0.0261,-0.048,-0.06,-0.0651,-0.0731,-0.039,-0.0279,-0.0281,-0.0283,-0.0284,-0.0285,-0.0078,-0.0052,-0.0058,-0.002,0.0004,0.0081,0.0182,0.0259,0.0421,0.0682,0.0681,0.0953,0.0702,0.047,0.024,-0.0208,-0.025,-0.0364,-0.048,-0.0533,-0.0618,-0.021,-0.0102,-0.0102,-0.0103,-0.0104,-0.0105,0,0.0052,0.0066,0.0095,0.0155,0.0237,0.0207,0.0334,0.0494,0.0792,0.1013,0.126,0.1338,0.1039,0.061,-0.0006,-0.037,-0.053,-0.059,-0.072,-0.0774,-0.0426,-0.0445,-0.0367,-0.0367,-0.0367,-0.0367,-0.0367,-0.0366,0.0128,0.0194,0.0204,0.0372,0.043,0.0607,0.0728,0.0974,0.1176,0.159,0.1805,0.1904,0.1522,0.0342,-0.0504,-0.0702,-0.1004,-0.1002,-0.1197,-0.1031,-0.1022,-0.1013,-0.106,-0.1113,-0.1114,-0.1476,-0.148,-0.1484]}],[{"header":{"parameterUnit":"m.s-1","parameterCategory":2,"la1":30.2991,"la2":30.254,"lo1":-89.0895,"lo2":-89.0444,"dy":0.0017,"dx":0.0017,"nx":28,"ny":28,"refTime":"2024-05-27T03:00:00:Z","depth":"2","parameterNumber":2,"parameterNumberName":"U-component_of_CURRENTS"},"data":[0,0,0,0,0,0,0,0,0,0,0,0,0,0,0,0,0,0,0,0,0,0,0,0,0,0,0,0,0,0,0,0,0,0,0,0,0,0,0,0,0,0,0,0,0,0,0,0,0,0,0,0,0,0,0,0,0,0,0.1425,0.1426,0,0.1407,0.1406,0.1406,0.1421,0.1422,0.1423,0.1424,0.1349,0.1346,0.1343,0,0,0,0,0,0,0,0,0,0,0,0,0,0.1405,0.1405,0.1425,0.1426,0.1426,0.1407,0.1406,0.1406,0.1421,0.1422,0.1423,0.1424,0.135,0.1346,0.1343,0,0,0,0,0,0,0,0,0,0,0,0,0,0.14,0.1406,0.1425,0.1433,0.1434,0.1407,0.1406,0.1406,0.1421,0.1422,0.1424,0.1425,0.1351,0.1347,0.1343,0.1288,0,0,0.1329,0.1328,0,0,0,0,0,0,0,0,0.14,0.14,0.1432,0.1433,0.1434,0.1421,0.1372,0.1365,0.142,0.1422,0.1424,0.1426,0.1369,0.1363,0.1353,0.1284,0.1281,0.1329,0.1326,0.1325,0.1323,0,0,0,0,0,0,0,0.1401,0.1401,0.1415,0.1432,0.1433,0.1414,0.1415,0.137,0.1384,0.1422,0.1424,0.1427,0.1368,0.1357,0.1351,0.128,0.1329,0.1325,0.1323,0.1321,0.1221,0.1221,0,0,0,0,0,0,0.1412,0.1401,0.1416,0.1415,0.1424,0.1414,0.1415,0.1421,0.1386,0.1384,0.1426,0.1428,0.1363,0.1356,0.1348,0.1342,0.1325,0.1321,0.1318,0.1221,0.1221,0.1221,0,0,0,0,0,0,0.1411,0.1413,0.1416,0.141,0.141,0.1414,0.1419,0.142,0.1433,0.139,0.1386,0.1442,0.1364,0.1354,0.1322,0.1337,0.1319,0.1315,0.1221,0.1221,0.1221,0.129,0,0,0,0,0,0,0.1411,0.1413,0.1426,0.1411,0.1411,0.1395,0.1418,0.1418,0.1432,0.1435,0.1402,0.1395,0.1365,0.1329,0.1318,0.1331,0.1311,0.1221,0.1221,0.1221,0.1288,0.1292,0.1296,0,0,0,0,0,0.141,0.1408,0.1427,0.1429,0.1427,0.1394,0.1391,0.1396,0.1432,0.1418,0.1413,0.1397,0.1321,0.1325,0.1312,0.1324,0.1222,0.1221,0.1221,0.1286,0.1292,0.1296,0,0,0,0,0,0,0.1399,0.1409,0.1429,0.1431,0.1418,0.1398,0.1402,0.1409,0.1395,0.1419,0.1386,0.1377,0.1353,0.1324,0.133,0.1294,0.1272,0.127,0.1326,0.1331,0.1335,0.1341,0.1308,0,0,0,0,0,0.1406,0.1407,0.141,0.1406,0.1419,0.142,0.1417,0.1421,0.1407,0.1406,0.1381,0.1363,0.1336,0.1325,0.1284,0.1261,0.1286,0.1262,0.1266,0.127,0.1266,0.1288,0.1295,0.1221,0.1221,0.1221,0,0,0.1396,0.1404,0.1404,0.1404,0.1413,0.1423,0.1421,0.1423,0.1427,0.1396,0.1396,0.1367,0.133,0.1306,0.1295,0.129,0.1322,0.127,0.1274,0.1267,0.1289,0.1297,0.1304,0.1221,0.1221,0.1221,0,0,0.1378,0.1399,0.1408,0.141,0.1427,0.1426,0.1436,0.1432,0.1433,0.1412,0.1408,0.139,0.1337,0.1322,0.1309,0.1308,0.1336,0.1302,0.1336,0.1359,0.1366,0.1372,0.15,0.1516,0.1313,0.1313,0.1313,0,0.1376,0.1397,0.1397,0.1416,0.1431,0.144,0.1461,0.1452,0.1428,0.1424,0.1418,0.1371,0.1344,0.1336,0.1342,0.1319,0.1371,0.1326,0.1368,0.1373,0.1378,0.1507,0.1524,0.1317,0.1316,0.1316,0.1316,0,0.1376,0.1404,0.1411,0.1451,0.145,0.1464,0.1471,0.1467,0.1476,0.1461,0.144,0.1402,0.1378,0.1372,0.1358,0.1381,0.1426,0.1368,0.1363,0.1391,0.1525,0.1542,0.1321,0.132,0.1319,0.1318,0,0,0.1364,0.1408,0.1419,0.1443,0.1483,0.1471,0.1494,0.1496,0.1505,0.1478,0.1482,0.1444,0.1433,0.1417,0.1403,0.1423,0.1536,0.1422,0.1422,0.1567,0.168,0.1796,0.1827,0.1489,0.149,0.1491,0.1792,0,0.1384,0.1421,0.1439,0.1472,0.1503,0.1518,0.1523,0.1519,0.151,0.1503,0.1487,0.1473,0.1451,0.1452,0.1469,0.1499,0.157,0.1466,0.1614,0.1621,0.1732,0.1844,0.1572,0.1822,0.1809,0.1812,0.1814,0,0.1405,0.1428,0.1467,0.1494,0.1511,0.1516,0.1532,0.1533,0.1531,0.1525,0.1523,0.1513,0.1557,0.1512,0.1628,0.1568,0.1639,0.167,0.168,0.1765,0.1765,0.1771,0.1853,0.1842,0.184,0.1838,0.1836,0,0.1399,0.1449,0.1476,0.1491,0.152,0.1525,0.1534,0.1533,0.1539,0.1547,0.1572,0.1588,0.1645,0.1678,0.1796,0.1709,0.1954,0.1834,0.2024,0.2038,0.1821,0.1813,0.1925,0.1924,0.1923,0.1923,0.1922,0,0.1424,0.144,0.1469,0.1483,0.1488,0.1514,0.1511,0.1517,0.1545,0.1581,0.1587,0.1659,0.1684,0.1828,0.1865,0.2071,0.2034,0.2079,0.2117,0.185,0.1842,0.1828,0.1813,0.1934,0.1932,0.1929,0.1927,0,0.1405,0.1438,0.145,0.1481,0.1483,0.1476,0.1498,0.1504,0.155,0.1611,0.1636,0.1765,0.1984,0.2082,0.222,0.2224,0.2346,0.2429,0.2193,0.2196,0.2397,0.2381,0.2632,0.2638,0.2644,0.2648,0.2652,0,0.14,0.1408,0.1425,0.1434,0.1444,0.1443,0.1451,0.1483,0.1515,0.1696,0.1749,0.2001,0.218,0.2496,0.2512,0.2671,0.2651,0.2542,0.2286,0.2456,0.2467,0.2442,0.242,0.2062,0.206,0.2059,0.2058,0,0.139,0.1388,0.1404,0.1427,0.1432,0.1428,0.146,0.1492,0.1587,0.1708,0.1958,0.213,0.2405,0.2462,0.2679,0.2691,0.2471,0.2533,0.2753,0.1939,0.1946,0.1948,0.1938,0.2049,0.205,0.205,0.2051,0.2051,0.1392,0.1386,0.1434,0.1433,0.1455,0.1487,0.1489,0.1575,0.1701,0.1851,0.202,0.2196,0.2258,0.2455,0.2476,0.2468,0.2596,0.2427,0.2416,0.241,0.2305,0.2321,0.2482,0.2486,0.2488,0.2491,0.2493,0,0.1429,0.1452,0.1456,0.1495,0.1509,0.1525,0.1564,0.1567,0.1749,0.1835,0.2007,0.1924,0.2039,0.2143,0.2084,0.2138,0.1951,0.2091,0.177,0.1786,0.1798,0.1645,0.1656,0.1654,0.1651,0.1649,0,0,0.1483,0.15,0.1482,0.1548,0.1589,0.16,0.1622,0.165,0.1681,0.1711,0.174,0.1862,0.2036,0.1775,0.1781,0.1713,0.1711,0.1653,0.2322,0.1954,0.1961,0.2004,0.1794,0,0,0,0,0]},{"header":{"parameterUnit":"m.s-1","parameterCategory":2,"la1":30.2991,"la2":30.254,"lo1":-89.0895,"lo2":-89.0444,"dy":0.0017,"dx":0.0017,"nx":28,"ny":28,"refTime":"2024-05-27T03:00:00:Z","depth":"2","parameterNumber":3,"parameterNumberName":"V-component_of_CURRENTS"},"data":[0,0,0,0,0,0,0,0,0,0,0,0,0,0,0,0,0,0,0,0,0,0,0,0,0,0,0,0,0,0,0,0,0,0,0,0,0,0,0,0,0,0,0,0,0,0,0,0,0,0,0,0,0,0,0,0,0,0,-0.0421,-0.0422,0,-0.0498,-0.0499,-0.05,-0.0516,-0.0515,-0.0515,-0.0514,-0.0569,-0.0571,-0.0573,0,0,0,0,0,0,0,0,0,0,0,0,0,-0.0344,-0.0345,-0.0421,-0.0422,-0.0423,-0.0498,-0.0499,-0.05,-0.0516,-0.0515,-0.0514,-0.0514,-0.0569,-0.0571,-0.0573,0,0,0,0,0,0,0,0,0,0,0,0,0,-0.0394,-0.0345,-0.0421,-0.0441,-0.0444,-0.0498,-0.0499,-0.05,-0.0516,-0.0515,-0.0514,-0.0514,-0.0568,-0.0571,-0.0573,-0.0606,0,0,-0.0582,-0.0583,0,0,0,0,0,0,0,0,-0.0391,-0.0397,-0.0437,-0.044,-0.0443,-0.0497,-0.0492,-0.0535,-0.0516,-0.0487,-0.0514,-0.0513,-0.0544,-0.0549,-0.0564,-0.0608,-0.0611,-0.0582,-0.0584,-0.0585,-0.0586,0,0,0,0,0,0,0,-0.0388,-0.0394,-0.0451,-0.0438,-0.0442,-0.0466,-0.0471,-0.0501,-0.0518,-0.049,-0.0491,-0.0502,-0.0546,-0.0561,-0.0565,-0.0612,-0.0582,-0.0585,-0.0587,-0.0588,-0.0686,-0.0686,0,0,0,0,0,0,-0.0378,-0.039,-0.0448,-0.0453,-0.0416,-0.0467,-0.0474,-0.048,-0.0518,-0.0524,-0.0502,-0.0502,-0.0557,-0.0562,-0.0567,-0.0623,-0.0585,-0.0588,-0.059,-0.0685,-0.0686,-0.0687,0,0,0,0,0,0,-0.0376,-0.0382,-0.0445,-0.0424,-0.0434,-0.0469,-0.0476,-0.0482,-0.0501,-0.0528,-0.0533,-0.0516,-0.0556,-0.0563,-0.0597,-0.0624,-0.0589,-0.0592,-0.0684,-0.0685,-0.0686,-0.0724,0,0,0,0,0,0,-0.0374,-0.0381,-0.0387,-0.0424,-0.0435,-0.0475,-0.0477,-0.0484,-0.0509,-0.0509,-0.0541,-0.0546,-0.0556,-0.0592,-0.06,-0.0627,-0.0594,-0.0683,-0.0684,-0.0686,-0.0721,-0.0726,-0.073,0,0,0,0,0,-0.037,-0.0384,-0.0387,-0.0395,-0.0441,-0.0475,-0.0483,-0.0505,-0.051,-0.0519,-0.0543,-0.0545,-0.0607,-0.0596,-0.0604,-0.0633,-0.0682,-0.0684,-0.0686,-0.0719,-0.0725,-0.073,0,0,0,0,0,0,-0.0362,-0.0388,-0.0392,-0.0415,-0.044,-0.0478,-0.0501,-0.051,-0.0538,-0.0546,-0.056,-0.0567,-0.0605,-0.0612,-0.0599,-0.0664,-0.0644,-0.0648,-0.0667,-0.0672,-0.0677,-0.0656,-0.0597,0,0,0,0,0,-0.036,-0.0374,-0.0402,-0.0422,-0.0438,-0.0469,-0.0489,-0.0504,-0.0533,-0.0545,-0.0567,-0.0593,-0.0621,-0.0639,-0.0663,-0.0704,-0.0693,-0.0725,-0.073,-0.0734,-0.0722,-0.0751,-0.0757,-0.0693,-0.0693,-0.0693,0,0,-0.0364,-0.0382,-0.039,-0.0421,-0.0449,-0.0463,-0.0479,-0.0517,-0.0528,-0.0548,-0.0579,-0.0611,-0.0634,-0.0677,-0.0695,-0.0687,-0.0742,-0.0736,-0.0739,-0.0725,-0.0754,-0.076,-0.0765,-0.0694,-0.0694,-0.0694,0,0,-0.0366,-0.0395,-0.0397,-0.0418,-0.0455,-0.0477,-0.0485,-0.0526,-0.0546,-0.0585,-0.0601,-0.0642,-0.0689,-0.0709,-0.0725,-0.0767,-0.0763,-0.0784,-0.0796,-0.0826,-0.0831,-0.0836,-0.0811,-0.0813,-0.0789,-0.0789,-0.0789,0,-0.0365,-0.0371,-0.0406,-0.0412,-0.0432,-0.0477,-0.0483,-0.0515,-0.0559,-0.058,-0.0596,-0.0671,-0.0699,-0.0739,-0.0762,-0.0777,-0.0778,-0.0777,-0.0832,-0.0836,-0.084,-0.0814,-0.0816,-0.0791,-0.0791,-0.0791,-0.0791,0,-0.0357,-0.0368,-0.0382,-0.0396,-0.0421,-0.0448,-0.0487,-0.052,-0.0559,-0.0586,-0.0644,-0.0693,-0.0733,-0.0761,-0.0782,-0.083,-0.0815,-0.0833,-0.0817,-0.0849,-0.0819,-0.082,-0.0794,-0.0793,-0.0793,-0.0792,0,0,-0.0341,-0.0364,-0.0371,-0.037,-0.0418,-0.0437,-0.0474,-0.0514,-0.0534,-0.0599,-0.0623,-0.0705,-0.0743,-0.0762,-0.08,-0.0837,-0.0876,-0.0858,-0.0859,-0.0829,-0.0911,-0.086,-0.0856,-0.092,-0.0921,-0.0922,-0.0871,0,-0.0322,-0.0318,-0.0343,-0.0353,-0.0357,-0.0413,-0.0439,-0.0486,-0.0537,-0.0574,-0.0642,-0.0681,-0.0739,-0.0769,-0.0822,-0.0852,-0.0885,-0.0885,-0.0886,-0.0884,-0.0835,-0.0858,-0.0815,-0.0764,-0.0872,-0.0872,-0.0872,0,-0.0299,-0.0302,-0.0301,-0.0324,-0.0335,-0.0358,-0.0415,-0.0442,-0.051,-0.0549,-0.0612,-0.0653,-0.071,-0.0761,-0.0831,-0.0834,-0.0881,-0.0907,-0.0906,-0.0844,-0.0837,-0.0754,-0.0762,-0.0874,-0.0874,-0.0874,-0.0873,0,-0.0259,-0.0273,-0.0272,-0.0283,-0.0319,-0.0348,-0.0382,-0.0447,-0.0461,-0.0533,-0.0529,-0.0623,-0.0632,-0.0728,-0.0781,-0.0822,-0.0831,-0.0888,-0.0877,-0.0871,-0.0822,-0.0811,-0.0949,-0.0949,-0.0949,-0.095,-0.095,0,-0.0219,-0.0225,-0.0261,-0.0263,-0.0278,-0.0324,-0.0353,-0.0398,-0.0439,-0.0413,-0.0516,-0.0478,-0.0631,-0.0646,-0.0746,-0.0781,-0.0802,-0.0867,-0.0864,-0.0831,-0.0822,-0.0913,-0.091,-0.0948,-0.0948,-0.0948,-0.0949,0,-0.0176,-0.0194,-0.0199,-0.0242,-0.0259,-0.028,-0.0321,-0.0325,-0.0369,-0.033,-0.0337,-0.0364,-0.0366,-0.0479,-0.0579,-0.0687,-0.0756,-0.0768,-0.0686,-0.0677,-0.0789,-0.0788,-0.0771,-0.0769,-0.0768,-0.0766,-0.0765,0,-0.015,-0.0148,-0.0183,-0.0182,-0.0209,-0.0242,-0.0249,-0.0302,-0.0276,-0.0219,-0.0165,-0.0155,-0.0087,-0.0198,-0.0393,-0.0531,-0.062,-0.062,-0.0714,-0.0776,-0.0775,-0.0777,-0.0779,-0.0652,-0.065,-0.0648,-0.0647,0,-0.0111,-0.0134,-0.0135,-0.0129,-0.0141,-0.0125,-0.0128,-0.0086,-0.0084,0.0008,0.0173,0.0241,0.0139,0.0032,-0.0205,-0.0326,-0.0607,-0.0591,-0.0676,-0.0705,-0.066,-0.0661,-0.0667,-0.0632,-0.0634,-0.0635,-0.0635,-0.0636,-0.0095,-0.0082,-0.008,-0.0072,-0.0054,0.0019,0.0067,0.0143,0.0267,0.0441,0.0469,0.0593,0.0358,0.0122,-0.0106,-0.0404,-0.0434,-0.0573,-0.058,-0.0588,-0.0585,-0.0541,-0.0486,-0.0487,-0.0487,-0.0488,-0.0488,0,-0.0067,-0.0038,-0.0018,0.002,0.0081,0.0078,0.0182,0.0283,0.0513,0.0659,0.0833,0.0706,0.0559,0.0265,-0.0144,-0.0392,-0.0453,-0.0482,-0.052,-0.0531,-0.0542,-0.0541,-0.0428,-0.0428,-0.0429,-0.0429,0,0,-0.0041,-0.0012,0.0007,0.0126,0.0186,0.0307,0.0398,0.0599,0.0726,0.0939,0.1008,0.1039,0.0666,0.0386,0.0047,-0.0193,-0.0309,-0.0238,-0.0259,-0.0274,-0.0282,-0.0563,-0.0568,0,0,0,0,0]}],[{"header":{"parameterUnit":"m.s-1","parameterCategory":2,"la1":30.2991,"la2":30.254,"lo1":-89.0895,"lo2":-89.0444,"dy":0.0017,"dx":0.0017,"nx":28,"ny":28,"refTime":"2024-05-27T03:00:00:Z","depth":"4","parameterNumber":2,"parameterNumberName":"U-component_of_CURRENTS"},"data":[0,0,0,0,0,0,0,0,0,0,0,0,0,0,0,0,0,0,0,0,0,0,0,0,0,0,0,0,0,0,0,0,0,0,0,0,0,0,0,0,0,0,0,0,0,0,0,0,0,0,0,0,0,0,0,0,0,0,0.0424,0.0424,0,0.0435,0.0435,0.0435,0.0491,0.0492,0.0494,0.0495,0.0581,0.0582,0.0583,0,0,0,0,0,0,0,0,0,0,0,0,0,0.0423,0.0423,0.0424,0.0424,0.0424,0.0435,0.0435,0.0435,0.0491,0.0493,0.0494,0.0496,0.0581,0.0582,0.0583,0,0,0,0,0,0,0,0,0,0,0,0,0,0.0427,0.0423,0.0424,0.0454,0.0457,0.0435,0.0435,0.0435,0.049,0.0493,0.0495,0.0497,0.058,0.0582,0.0583,0.055,0,0,0.0588,0.0588,0,0,0,0,0,0,0,0,0.0427,0.0427,0.0449,0.0452,0.0455,0.0465,0.0467,0.0478,0.049,0.0477,0.0495,0.0498,0.0548,0.0552,0.0547,0.0554,0.0558,0.0588,0.0589,0.0589,0.059,0,0,0,0,0,0,0,0.0426,0.0427,0.0428,0.0449,0.0453,0.0458,0.0461,0.0468,0.0501,0.0478,0.0482,0.0484,0.055,0.0546,0.055,0.0559,0.0588,0.0589,0.059,0.059,0.0656,0.0657,0,0,0,0,0,0,0.0426,0.0426,0.0427,0.0428,0.0447,0.0456,0.046,0.0459,0.05,0.0507,0.0483,0.0487,0.0542,0.0548,0.0553,0.0635,0.0589,0.0591,0.0591,0.0655,0.0656,0.0657,0,0,0,0,0,0,0.0426,0.0425,0.0427,0.0428,0.0429,0.0454,0.0453,0.0458,0.0481,0.0502,0.0512,0.0504,0.0544,0.0551,0.0586,0.0634,0.0591,0.0593,0.0654,0.0655,0.0657,0.0722,0,0,0,0,0,0,0.0425,0.0425,0.0434,0.0428,0.0429,0.0445,0.0451,0.0457,0.0478,0.0485,0.0523,0.0532,0.0546,0.0584,0.0588,0.0636,0.0594,0.0653,0.0655,0.0656,0.0719,0.0726,0.0732,0,0,0,0,0,0.0425,0.0431,0.0434,0.0435,0.0437,0.0446,0.0448,0.0471,0.0477,0.0497,0.0518,0.0532,0.0598,0.0585,0.059,0.0639,0.0652,0.0654,0.0656,0.0716,0.0725,0.0731,0,0,0,0,0,0,0.0446,0.0437,0.044,0.0447,0.0459,0.0457,0.0473,0.0478,0.0504,0.0517,0.0533,0.0543,0.0596,0.0595,0.0581,0.0661,0.0631,0.0634,0.0675,0.0683,0.0689,0.0755,0.0595,0,0,0,0,0,0.0448,0.0447,0.0448,0.0457,0.0462,0.0466,0.0474,0.0489,0.0504,0.0519,0.0544,0.0569,0.0598,0.0624,0.0644,0.0677,0.0699,0.0713,0.0719,0.0725,0.078,0.0832,0.085,0.0663,0.0663,0.0663,0,0,0.0457,0.0454,0.0455,0.0461,0.0467,0.048,0.0478,0.0499,0.0524,0.0522,0.0571,0.059,0.0609,0.0659,0.0683,0.0672,0.078,0.0727,0.0732,0.0785,0.0837,0.0855,0.0872,0.0665,0.0665,0.0664,0,0,0.0466,0.0473,0.0472,0.0484,0.0498,0.0505,0.0516,0.0529,0.0556,0.0589,0.0603,0.0654,0.0681,0.0722,0.074,0.0787,0.0806,0.079,0.0886,0.0935,0.0952,0.0967,0.0984,0.1,0.0799,0.0799,0.0799,0,0.0485,0.0475,0.0479,0.0487,0.0499,0.0519,0.0532,0.0558,0.0588,0.0622,0.0622,0.0707,0.072,0.0801,0.0838,0.0808,0.0833,0.0855,0.0947,0.0963,0.0977,0.0991,0.1008,0.0802,0.0802,0.0801,0.0801,0,0.0483,0.049,0.0495,0.0508,0.0529,0.0546,0.0578,0.0614,0.0644,0.0682,0.0772,0.08,0.0869,0.0871,0.0882,0.0998,0.0978,0.0943,0.0935,0.1001,0.1009,0.1026,0.0807,0.0806,0.0805,0.0804,0,0,0.0484,0.049,0.0493,0.0506,0.054,0.0558,0.0609,0.0667,0.0727,0.0785,0.0867,0.0947,0.1002,0.1029,0.1046,0.1108,0.1216,0.1099,0.11,0.113,0.1324,0.1199,0.1205,0.1208,0.1212,0.1215,0.1276,0,0.0483,0.0487,0.0498,0.0531,0.054,0.0583,0.0641,0.0709,0.0772,0.0862,0.0937,0.1029,0.1048,0.1104,0.1177,0.121,0.1272,0.1203,0.1247,0.1249,0.1142,0.1225,0.1228,0.1289,0.1292,0.1295,0.1297,0,0.0468,0.0475,0.0491,0.0544,0.0558,0.0598,0.0696,0.0758,0.0889,0.0945,0.1067,0.1134,0.1273,0.1253,0.1395,0.1357,0.1381,0.139,0.139,0.1281,0.1158,0.1216,0.1328,0.1325,0.1323,0.1321,0.1319,0,0.0441,0.0473,0.0484,0.0499,0.0567,0.0609,0.0673,0.0796,0.0863,0.1029,0.1092,0.1254,0.1343,0.142,0.1469,0.146,0.1576,0.1534,0.1439,0.1427,0.1491,0.1474,0.1643,0.1643,0.1643,0.1643,0.1643,0,0.0417,0.043,0.0481,0.0487,0.0548,0.0619,0.0714,0.0798,0.0933,0.1034,0.1164,0.1247,0.1404,0.1477,0.1506,0.1524,0.1604,0.1501,0.1458,0.1507,0.1492,0.15,0.1482,0.1645,0.1645,0.1644,0.1644,0,0.0368,0.0396,0.0416,0.0491,0.0527,0.0582,0.0709,0.078,0.0923,0.1048,0.1113,0.1285,0.1396,0.1474,0.1583,0.1556,0.1573,0.1545,0.1589,0.1538,0.1386,0.1371,0.1486,0.1483,0.148,0.1477,0.1475,0,0.0333,0.0336,0.04,0.0432,0.0468,0.0558,0.062,0.0762,0.0834,0.1047,0.1092,0.1262,0.136,0.1398,0.1491,0.1526,0.1505,0.1507,0.1493,0.1436,0.1383,0.1372,0.1361,0.1471,0.147,0.1469,0.1469,0,0.0271,0.0296,0.0309,0.0368,0.0428,0.049,0.0593,0.0632,0.0815,0.0938,0.1066,0.1159,0.1264,0.1352,0.1381,0.1397,0.1512,0.1478,0.1484,0.1471,0.1418,0.1366,0.1359,0.1459,0.146,0.1461,0.1462,0,0.0222,0.0217,0.0244,0.03,0.0365,0.0419,0.0478,0.0575,0.0665,0.0902,0.0937,0.1097,0.1248,0.1281,0.1297,0.1318,0.1323,0.1297,0.1313,0.1325,0.1247,0.1154,0.1118,0,0,0,0,0,0.0174,0.0164,0.0189,0.0241,0.0302,0.0349,0.0459,0.0526,0.0686,0.0749,0.0852,0.0943,0.1053,0.1121,0.1116,0.1224,0.1308,0.1213,0.128,0.1404,0.1415,0.1339,0,0,0,0,0,0,0.0139,0.014,0.015,0.018,0.0216,0.0278,0.0343,0.0453,0.0494,0.067,0.0718,0.0875,0.0966,0.1038,0.1092,0.1116,0.1138,0.1312,0.131,0.1397,0.1408,0.1417,0.1342,0,0,0,0,0]},{"header":{"parameterUnit":"m.s-1","parameterCategory":2,"la1":30.2991,"la2":30.254,"lo1":-89.0895,"lo2":-89.0444,"dy":0.0017,"dx":0.0017,"nx":28,"ny":28,"refTime":"2024-05-27T03:00:00:Z","depth":"4","parameterNumber":3,"parameterNumberName":"V-component_of_CURRENTS"},"data":[0,0,0,0,0,0,0,0,0,0,0,0,0,0,0,0,0,0,0,0,0,0,0,0,0,0,0,0,0,0,0,0,0,0,0,0,0,0,0,0,0,0,0,0,0,0,0,0,0,0,0,0,0,0,0,0,0,0,0.0251,0.0251,0,0.0256,0.0256,0.0256,0.0236,0.0236,0.0235,0.0235,0.0204,0.0204,0.0203,0,0,0,0,0,0,0,0,0,0,0,0,0,0.0218,0.0218,0.0251,0.0251,0.0252,0.0256,0.0256,0.0256,0.0237,0.0236,0.0235,0.0234,0.0204,0.0204,0.0203,0,0,0,0,0,0,0,0,0,0,0,0,0,0.0228,0.0219,0.0251,0.0242,0.0241,0.0256,0.0256,0.0256,0.0237,0.0236,0.0235,0.0234,0.0204,0.0204,0.0203,0.0218,0,0,0.0202,0.0202,0,0,0,0,0,0,0,0,0.0228,0.023,0.0243,0.0243,0.0242,0.0245,0.0233,0.0242,0.0237,0.0239,0.0235,0.0234,0.0215,0.0213,0.0217,0.0217,0.0216,0.0202,0.0202,0.0202,0.0201,0,0,0,0,0,0,0,0.0227,0.0229,0.0253,0.0244,0.0243,0.0235,0.0236,0.0235,0.0231,0.0238,0.0237,0.0238,0.0214,0.0217,0.0216,0.0215,0.0202,0.0202,0.0201,0.0201,0.024,0.0241,0,0,0,0,0,0,0.0228,0.0229,0.0253,0.0253,0.0232,0.0236,0.0237,0.0245,0.0232,0.0229,0.0238,0.0237,0.0219,0.0216,0.0215,0.0268,0.0202,0.0201,0.0201,0.0238,0.024,0.0241,0,0,0,0,0,0,0.0227,0.023,0.0253,0.0241,0.0243,0.0238,0.0247,0.0245,0.0251,0.0232,0.0229,0.0246,0.0218,0.0215,0.0231,0.0265,0.0201,0.0201,0.0237,0.0239,0.0241,0.0351,0,0,0,0,0,0,0.0227,0.023,0.0242,0.0241,0.0244,0.0278,0.0248,0.0246,0.0253,0.0251,0.0238,0.0234,0.0217,0.0232,0.0231,0.0263,0.02,0.0235,0.0238,0.024,0.0346,0.0357,0.0366,0,0,0,0,0,0.0225,0.0254,0.0243,0.0246,0.0258,0.028,0.0281,0.0274,0.0254,0.0273,0.0262,0.0234,0.0245,0.0233,0.0231,0.0264,0.0234,0.0237,0.024,0.0341,0.0354,0.0365,0,0,0,0,0,0,0.0249,0.0254,0.0242,0.027,0.0278,0.0277,0.0297,0.0281,0.0288,0.0286,0.0256,0.0253,0.0279,0.0255,0.0241,0.028,0.0233,0.0236,0.0311,0.0323,0.0332,0.0333,0.02,0,0,0,0,0,0.0258,0.028,0.0278,0.0303,0.031,0.0301,0.0308,0.0303,0.0304,0.0306,0.0294,0.0284,0.029,0.0292,0.0291,0.0315,0.0257,0.0332,0.0342,0.0351,0.0349,0.0286,0.029,0.0251,0.0251,0.0251,0,0,0.0275,0.0281,0.0293,0.0309,0.0315,0.0346,0.0305,0.0328,0.0354,0.0302,0.0337,0.0322,0.0304,0.0336,0.0344,0.032,0.0334,0.0354,0.0362,0.0355,0.029,0.0293,0.0296,0.0253,0.0252,0.0252,0,0,0.0329,0.0325,0.0364,0.0376,0.039,0.0387,0.0395,0.0398,0.0401,0.0431,0.04,0.0401,0.0413,0.0404,0.0402,0.0462,0.0389,0.0464,0.0517,0.0458,0.046,0.0461,0.0401,0.0396,0.0468,0.0468,0.0469,0,0.0347,0.0388,0.0379,0.0421,0.0434,0.0409,0.0449,0.0461,0.0467,0.0464,0.0458,0.0455,0.0446,0.0465,0.0496,0.0485,0.0434,0.0478,0.047,0.047,0.0469,0.0407,0.04,0.0474,0.0473,0.0473,0.0472,0,0.0426,0.0459,0.0487,0.0525,0.0542,0.0573,0.0578,0.0587,0.0579,0.0575,0.0587,0.0574,0.0561,0.057,0.0562,0.0561,0.0521,0.049,0.0439,0.0479,0.0412,0.0402,0.0482,0.048,0.0478,0.0477,0,0,0.0459,0.0527,0.0536,0.0557,0.0592,0.0607,0.0651,0.0665,0.067,0.0681,0.068,0.0709,0.0673,0.0667,0.0644,0.0608,0.0578,0.0561,0.0555,0.0502,0.0441,0.0391,0.0375,0.0542,0.0541,0.054,0.0398,0,0.0517,0.0603,0.0623,0.0691,0.0724,0.0714,0.0752,0.0758,0.0753,0.0748,0.0723,0.0728,0.072,0.0713,0.0682,0.0596,0.0557,0.0619,0.0409,0.0403,0.0353,0.0364,0.0537,0.0391,0.0389,0.0387,0.0386,0,0.058,0.0623,0.0706,0.0746,0.0759,0.0802,0.081,0.0845,0.0833,0.0823,0.081,0.0777,0.075,0.0727,0.0607,0.0644,0.0559,0.049,0.0482,0.0387,0.0336,0.0338,0.0368,0.0369,0.037,0.0372,0.0373,0,0.0585,0.067,0.073,0.0751,0.0806,0.0831,0.0859,0.0867,0.088,0.0868,0.085,0.0808,0.0776,0.0675,0.0557,0.0574,0.0393,0.0385,0.0258,0.0253,0.029,0.029,0.0287,0.0287,0.0287,0.0288,0.0288,0,0.0621,0.0664,0.0741,0.077,0.082,0.086,0.0901,0.0909,0.0921,0.0923,0.0895,0.0859,0.076,0.065,0.0544,0.0367,0.0375,0.026,0.0211,0.0342,0.0349,0.0283,0.0285,0.0282,0.0283,0.0284,0.0285,0,0.0609,0.0672,0.0729,0.0801,0.0829,0.0864,0.0931,0.0949,0.0966,0.0958,0.0955,0.0884,0.0738,0.0611,0.0425,0.0342,0.0181,0.0114,0.0259,0.022,0.0085,0.0094,-0.0042,-0.0045,-0.0047,-0.0049,-0.0051,0,0.0608,0.0646,0.0735,0.0773,0.0813,0.0877,0.0916,0.0964,0.0979,0.0958,0.0938,0.0822,0.0749,0.0445,0.0324,0.0096,0.0073,-0.0001,0.0061,0.0085,0.005,0.0063,0.0075,-0.0055,-0.0056,-0.0056,-0.0057,0,0.0584,0.0625,0.0665,0.0743,0.0803,0.0863,0.0925,0.0932,0.097,0.0983,0.089,0.0762,0.0585,0.0403,0.0226,0.0071,0.0056,-0.0027,-0.0022,0.0036,0.0067,0.0038,0.0053,-0.0066,-0.0064,-0.0064,-0.0063,0,0.0549,0.0568,0.0631,0.0691,0.077,0.0828,0.0868,0.0881,0.0899,0.089,0.0849,0.0694,0.0626,0.0385,0.0217,0.0063,0.0036,0.0011,0.0014,0.0022,0.0093,0.0146,-0.0013,0,0,0,0,0,0.0503,0.0526,0.0576,0.0649,0.0727,0.0776,0.0858,0.0895,0.0928,0.0856,0.0859,0.0694,0.0453,0.0355,0.0184,0.0169,0.0009,-0.0035,-0.0018,-0.0114,-0.0104,-0.0034,0,0,0,0,0,0,0.0475,0.0515,0.0547,0.0601,0.0644,0.0727,0.0781,0.0813,0.0779,0.0794,0.0661,0.0641,0.04,0.053,0.017,0.0128,0.0116,-0.0132,-0.0135,-0.012,-0.0111,-0.0103,-0.0027,0,0,0,0,0]}]]